Simultaneous Nadir Overpasses (SNOs) Predictions

Prediction of SNOs between GOES-17 and NOAA-20 Satellite Orbit:

Table of predicted SNOs for the next 14.0 days since TLE Epoch: 2/3/2024
Index Date Time (GOES-17) GOES-17 Lat,Lon NOAA-20 Lat,Lon Distance(km) Time Diff (sec)
1 02/03/2024 08:17:59 0.02,-104.70 -0.26,-103.54 131.74 80
2 02/04/2024 20:39:55 -0.03,-104.68 -0.98,-108.84 475.03 80
3 02/05/2024 20:23:52 -0.03,-104.68 0.08,-104.32 41.37 80
4 02/08/2024 08:26:55 0.03,-104.70 0.11,-105.05 40.75 80
5 02/09/2024 08:05:31 0.03,-104.69 -0.89,-100.52 475.29 80
6 02/10/2024 20:27:28 -0.04,-104.67 -0.27,-105.83 131.74 80
7 02/11/2024 20:08:44 -0.03,-104.67 0.73,-101.30 384.71 80
8 02/13/2024 08:33:12 0.04,-104.70 0.44,-106.57 212.77 80
9 02/14/2024 08:11:48 0.03,-104.70 -0.56,-102.04 303.60 80
10 02/15/2024 20:36:24 -0.04,-104.68 -0.65,-107.33 303.33 80
11 02/16/2024 20:14:59 -0.04,-104.68 0.36,-102.80 213.18 80
